Location: *
(29.1167°S, 130.0000°E)
Time: 03:15:30
(UTC+00:00)

USA 234 - Pass Details

Date: 21 July 2019
Orbit: 1101 x 1107 km, 123.0° (Epoch: 15 August)

Event Time Altitude Azimuth Distance (km) Brightness Sun altitude
Exits shadow 10:05:34 25° 124° (ESE) 2,079 4.2 -18.0°
Maximum altitude 10:09:32 61° 52° (NE) 1,251 3.3 -18.9°
Drops below altitude 10° 10:15:59 10° 332° (NNW) 2,961 6.0 -20.2°
Sets 10:18:29 0° 329° (NNW) 3,913 6.8 -20.8°
